208  
ASUS43 KIWX 272310  
RWRIWX  
 
KIWX WEATHER ROUNDUP  
NATIONAL WEATHER SERVICE NORTHERN INDIANA  
700 PM EDT WED OCT 27 2021  
 
NOTE: "FAIR" INDICATES FEW OR NO CLOUDS BELOW 12,000 FEET WITH NO  
SIGNIFICANT WEATHER AND/OR S TO VISIBILITY
.  
 
* THESE STATIONS ARE NOT UNDER NWS QUALITY CONTROL. THEY ALSO MAY NOT  
REPORT WEATHER SUCH AS PRECIPITATION OR FOG.
 
 
INZ001>027-280000-  
NORTHERN INDIANA  
 
CITY SKY/WX TMP DP RH WIND PRES REMARKS
 
GARY* CLEAR 50 41 71 CALM 29.92R  
VALPARAISO FAIR 50 37 61 CALM 29.93R  
MICHIGAN CITY* FAIR 46 37 71 CALM 29.92R  
LAPORTE* FAIR 47 40 77 E5 29.92R  
KNOX* FAIR 48 37 66 CALM 29.91R  
SOUTH BEND FAIR 50 40 68 E3 29.93R  
GOSHEN FAIR 49 42 77 E7 29.91S  
MONTICELLO* FAIR 50 37 61 CALM 29.91R  
LOGANSPORT* FAIR 46 37 71 CALM 29.93R  
ROCHESTER* FAIR 50 41 71 E3 29.91R  
PLYMOUTH* CLEAR 48 41 76 CALM 29.90R  
WARSAW* FAIR 48 37 66 E6 29.91S  
AUBURN* CLOUDY 50 43 76 E6 29.93F  
FORT WAYNE FAIR 47 42 83 E12 29.93S  
PERU/GRISSOM FAIR 51 39 64 E3 29.90R  
 

 
INZ028>050-280000-  
CENTRAL INDIANA  
 
CITY SKY/WX TMP DP RH WIND PRES REMARKS
 
LAFAYETTE FAIR 50 38 63 E9 29.89R  
KOKOMO* FAIR 49 42 77 E5 29.92R HAZE  
MARION* FAIR 50 41 71 E6 29.92R HAZE  
MUNCIE* FAIR 52 41 66 E7 29.91R  
PORTLAND* MOCLDY 48 37 66 SE10 29.93R  
INDIANAPOLIS MOCLDY 53 37 54 E7 29.89R  
 

 
MIZ043>046-050>051-056>058-064>065-071>073-077>080-280000-  
SOUTHWEST LOWER MICHIGAN  
 
CITY SKY/WX TMP DP RH WIND PRES REMARKS
 
BATTLE CREEK CLOUDY 51 45 79 E5 29.94F  
BENTON HARBOR FAIR 47 40 76 E6 29.92R  
COLDWATER* CLOUDY 49 45 85 E7 29.94S  
HILLSDALE* CLOUDY 48 47 94 E6 29.94F  
HOLLAND CLOUDY 50 44 80 E6 29.96R  
GRAND RAPIDS DRIZZLE 50 47 89 E7 29.96R  
KALAMAZOO CLOUDY 51 43 74 CALM 29.94F  
STURGIS* CLOUDY 49 47 93 E8 29.93S  
THREE RIVERS* CLOUDY 49 44 82 E7 29.94S  
 

 
OHZ001>008-015>018-024>025-280000-  
NORTHWEST OHIO  
 
CITY SKY/WX TMP DP RH WIND PRES REMARKS
 
WAUSEON* CLOUDY 48 48 100 E6 29.95F FOG  
DEFIANCE CLOUDY 51 43 74 SE6 29.95F  
FINDLAY CLOUDY 53 45 74 E7 29.94S  
TOLEDO EXPRESS CLOUDY 51 45 79 SE3 29.96S  
VAN WERT* CLOUDY 48 41 76 SE3 29.95S  
LIMA CLOUDY 50 44 80 E6 29.93F  
 

 
AND FOR LAKE MICHIGAN COASTAL AND OPEN LAKE BUOY OBSERVATIONS  
 
STATION/POSITION TEMP WIND PRES VSBY WAVE
 
AIR SEA DIR/SP/G HT/PER  
(F) (DEG/KT/KT) (MB) (MI) (FT/S)  
CALUMET HARBOR 90/ 9/ 11 1011.0  
MICHIGAN CITY 53 100/ 6/ 7 1013.4R  
BURNS HARBOR 55 100/ 3/ 5 1012.5F  
SAINT JOSEPH 53 50/ 3/ 8 1013.5  
SOUTH LAKE BUOY 53 60 80/ 14/ 17 1012.7F 1/ 3  
4 MI NW BRIDGMAN 53 60 100/ 12/ 16 1013.3R 1/ 5  
 

 

 
 
 
CLICK HERE TO GO TO PREVIOUS BULLETINS.

The Nexlab IN Page
The Nexlab OH Page
The Nexlab MI Page Main Text Page